Wind_Speed
61 72 73 72 72 72 76 73 73 73 70 67 67 67 64 62 60 60 65 72 74 73 73 72 68 70 75 73 70 70 66 60 58 52 51 51 41 35 31 34 31 28 29 27 27
46 54 60 63 70 78 77 80 78 79 73 69 69 70 69 66 63 65 64 65 72 74 76 76 74 71 68 76 74 69 69 68 62 62 52 52 46 40 36 33 35 33 31 28 31
31 34 41 42 56 63 73 82 84 80 78 75 72 73 72 71 69 65 65 63 65 70 74 75 77 75 73 69 71 71 64 61 61 60 55 54 53 45 35 36 35 35 34 31 31
38 36 32 34 39 44 55 68 73 81 80 79 75 76 75 74 72 70 68 66 65 64 68 73 77 78 76 71 71 70 67 61 59 56 57 58 59 58 49 44 39 36 35 35 33
31 36 36 34 34 36 41 54 63 70 77 82 79 79 81 75 75 73 72 71 69 65 66 67 73 80 79 77 74 74 69 63 60 58 56 58 58 54 53 47 45 41 36 41 38
21 25 30 37 36 35 32 37 47 59 67 75 81 86 82 83 75 75 72 73 73 70 65 67 69 73 79 77 77 75 71 69 64 62 63 59 57 55 54 51 48 44 42 41 40
21 19 22 27 32 34 35 30 35 43 57 64 71 82 85 83 83 78 75 74 75 74 72 67 67 71 77 79 79 74 73 72 68 63 65 61 60 50 53 53 49 46 44 44 44
26 27 27 23 21 25 31 38 30 32 42 55 63 71 86 86 87 85 79 78 78 77 77 73 70 72 71 76 78 77 76 75 71 65 64 60 54 53 52 54 52 51 49 46 45
31 28 28 26 25 21 23 27 31 32 33 42 53 62 73 85 91 93 90 83 83 81 79 77 75 71 71 73 76 76 73 74 74 68 63 59 59 56 54 57 54 54 51 48 46
34 34 31 28 29 27 22 19 21 28 34 34 43 53 61 72 78 87 88 86 87 85 82 80 78 76 71 71 68 73 78 77 77 74 72 66 64 62 61 59 57 54 54 50 47
32 33 34 33 27 27 24 23 22 21 29 33 35 43 55 63 68 77 84 87 89 89 86 85 82 76 75 70 72 76 82 86 83 81 78 73 72 69 67 64 59 56 54 50 48
31 32 30 31 32 29 26 29 24 23 25 29 33 37 40 56 64 70 77 85 91 92 90 87 83 82 81 76 74 75 82 85 86 84 83 78 76 75 71 68 62 54 52 50 50
32 32 33 34 34 35 33 29 30 27 22 31 27 35 37 42 59 65 73 76 86 90 90 89 85 85 84 77 74 73 76 79 86 87 85 82 80 77 72 67 62 55 51 52 56
31 35 34 35 36 38 38 36 33 34 26 29 32 31 38 40 48 60 65 72 76 83 90 88 89 87 84 80 78 73 75 83 85 93 90 89 85 79 73 69 61 56 56 57 57
37 38 39 39 37 39 38 37 38 37 29 33 34 40 38 43 47 53 61 66 71 77 79 85 92 91 88 82 85 79 81 85 87 93 99 95 90 80 76 67 60 62 63 62 62
43 43 44 45 47 44 43 42 43 39 34 39 41 41 42 44 48 51 55 63 70 73 76 78 82 89 90 91 92 88 89 90 91 94 98 92 90 84 74 68 75 66 68 68 63
44 48 51 52 52 51 50 48 45 43 44 42 45 45 45 44 49 53 55 58 67 68 71 76 75 77 82 86 90 88 91 93 92 93 84 90 94 79 78 77 80 74 73 68 62
51 53 55 57 58 58 56 55 54 51 52 49 45 48 47 49 48 56 56 56 64 69 70 73 73 73 78 81 86 86 88 91 86 82 79 92 90 82 80 81 87 87 81 73 66
56 58 61 61 63 65 62 62 60 55 54 56 56 50 49 51 51 52 58 59 63 69 71 71 73 78 78 86 92 91 92 82 92 91 92 88 87 87 87 85 86 88 88 81 77
61 63 65 67 69 69 69 67 67 65 61 60 59 54 50 51 51 48 56 61 67 69 73 73 74 80 81 84 89 89 81 89 93 94 89 81 83 84 87 87 88 86 86 89 90
69 71 71 73 74 76 74 74 74 70 68 64 61 60 54 53 51 50 49 62 67 69 70 74 74 79 83 81 81 83 87 84 86 92 89 80 76 77 85 91 89 88 90 90 93
76 77 78 81 80 79 76 75 74 71 67 65 63 61 59 56 56 54 53 63 67 71 71 77 78 78 80 83 85 87 85 86 89 83 82 80 73 74 82 89 91 91 94 93 91
82 84 85 86 84 78 77 79 80 79 74 69 67 62 61 62 59 59 58 61 67 71 73 75 75 81 82 80 79 80 78 80 81 82 84 84 70 74 79 83 87 91 92 91 87
83 85 84 82 81 80 81 79 76 72 71 67 62 61 64 67 64 61 61 65 66 71 74 75 74 78 79 80 84 81 77 79 82 84 79 76 77 75 78 83 83 84 89 93 91
85 83 84 84 83 83 77 71 70 69 70 69 61 59 62 67 70 66 67 68 70 70 77 76 73 78 84 86 87 84 84 84 82 76 82 74 78 79 77 87 82 81 82 87 86
85 83 82 82 79 74 72 70 67 67 67 64 62 57 61 65 69 70 69 73 74 72 78 79 73 79 81 86 88 88 88 87 79 73 76 84 83 83 81 87 84 83 79 82 83
83 81 76 72 74 73 70 68 67 65 65 64 62 62 59 64 67 69 70 76 76 78 79 82 78 78 79 89 91 89 78 80 81 81 80 79 78 86 84 80 82 72 81 83 77
Wind_Direction
261 257 256 254 250 247 244 244 242 245 247 248 246 244 242 241 241 238 239 236 234 235 236 234 232 232 230 234 235 236 244 245 244 249 252 251 240 243 235 230 237 243 250 248 252
265 259 256 254 253 249 249 244 244 245 245 244 243 243 242 240 240 242 238 238 235 236 236 236 235 233 233 236 237 239 242 244 244 246 247 245 244 244 247 234 236 242 248 249 250
283 275 261 260 256 253 249 247 246 244 245 241 239 241 241 240 238 239 242 239 238 237 236 238 236 236 233 237 239 241 242 240 239 239 238 241 248 248 249 239 234 240 246 250 248
292 290 279 266 259 257 252 248 247 244 242 239 237 237 239 238 236 238 239 241 238 238 238 238 238 236 234 233 238 239 240 240 239 238 234 237 244 251 253 242 239 236 246 250 247
293 294 288 280 277 262 257 248 246 244 241 239 239 238 238 237 235 235 237 239 239 238 238 239 238 237 235 235 235 238 240 239 238 234 231 233 235 244 250 244 242 241 243 249 252
296 297 292 288 281 282 272 255 248 243 243 239 239 237 236 234 234 234 238 237 239 239 238 238 237 237 237 235 234 237 238 239 237 235 232 232 235 240 244 243 241 242 245 248 249
290 291 299 291 290 293 289 274 257 248 242 242 238 234 234 234 233 235 236 238 238 239 239 236 237 238 237 236 234 233 235 237 238 235 234 235 237 239 239 243 242 243 245 246 245
283 286 282 288 298 292 291 287 272 256 246 243 240 237 233 232 233 234 236 238 236 238 241 240 236 237 236 235 234 231 231 236 238 237 235 231 232 230 235 241 242 242 244 245 243
288 286 279 275 283 282 299 289 287 276 255 245 238 237 236 235 235 234 237 236 235 236 238 241 239 236 237 236 234 233 231 232 238 237 232 230 228 231 232 240 241 240 242 245 247
288 283 277 274 280 277 276 285 288 284 269 251 244 236 235 235 234 232 232 232 233 235 235 237 241 240 237 236 236 234 230 228 233 235 233 232 228 228 229 234 239 244 242 244 248
297 286 281 278 278 273 269 269 277 299 283 266 246 242 233 233 235 233 232 229 230 233 235 238 237 241 239 236 231 231 231 228 226 228 230 232 230 227 224 229 235 242 246 249 251
300 294 289 283 279 276 273 270 263 285 289 280 263 247 238 236 234 233 233 232 230 231 235 237 236 237 239 236 233 230 232 232 231 231 233 233 231 230 228 229 231 237 243 247 247
301 300 296 289 283 280 276 267 263 270 282 289 281 261 237 238 235 232 234 233 232 231 233 234 232 236 237 238 236 232 233 233 234 233 233 232 232 233 234 231 229 230 235 241 243
304 301 296 294 290 284 282 276 268 268 263 276 279 271 256 235 239 232 232 232 233 233 232 233 234 236 236 237 239 234 234 232 231 232 232 232 231 228 231 229 228 228 232 237 240
299 301 302 301 295 288 286 282 277 269 262 257 271 271 263 248 242 236 233 231 232 233 233 231 232 234 236 238 238 239 234 232 230 229 231 230 232 231 232 230 226 233 233 235 238
299 298 300 302 301 297 293 287 284 282 274 261 263 266 268 259 246 241 233 232 231 233 232 233 233 234 236 238 239 236 233 230 231 231 232 232 233 231 233 231 230 231 237 238 241
297 299 299 298 298 298 293 290 288 283 278 274 269 263 261 262 256 243 237 232 232 231 230 230 230 231 230 233 236 235 235 234 232 234 234 236 235 234 233 234 232 232 237 236 240
295 294 296 295 296 296 292 289 287 282 280 274 268 268 258 253 253 249 241 233 232 230 230 229 229 229 230 232 235 235 235 237 236 235 237 235 234 231 234 232 231 232 239 239 239
289 290 293 292 293 295 293 289 285 283 277 273 269 267 264 255 248 249 245 238 234 231 230 229 228 228 229 230 233 236 237 238 234 229 228 230 230 227 229 232 233 233 236 237 239
288 286 288 289 291 292 291 288 285 282 280 274 269 265 260 255 249 246 244 242 236 232 230 229 229 230 228 231 233 236 236 236 236 232 231 232 233 233 230 234 236 237 238 238 238
287 286 288 288 289 288 288 287 286 283 278 273 267 265 260 253 246 243 241 241 241 236 231 230 228 230 230 231 234 234 237 239 238 234 229 228 230 231 230 232 233 236 237 237 239
285 285 286 285 287 288 287 285 284 282 276 271 266 262 258 252 250 245 237 239 240 239 234 229 229 230 231 231 232 233 235 235 235 231 228 228 231 232 231 232 233 233 236 240 243
285 285 285 285 285 284 283 283 283 280 276 271 266 261 256 253 246 245 239 238 237 238 236 232 230 229 231 233 233 234 236 237 236 232 225 225 222 230 229 233 234 235 236 240 242
285 287 287 287 287 286 285 284 280 277 273 268 261 257 252 251 246 243 239 236 237 237 237 234 228 229 231 231 232 233 234 233 234 230 224 222 223 230 230 228 233 235 237 240 240
288 287 286 287 286 285 282 278 275 273 270 268 264 255 249 246 242 238 235 234 234 237 238 236 229 228 226 230 231 232 233 233 231 228 225 221 221 225 229 228 231 234 238 241 242
286 288 288 286 284 282 280 276 274 271 268 265 262 254 247 243 240 238 232 231 234 236 239 236 229 230 227 228 230 231 231 231 233 231 224 220 221 223 226 228 234 234 239 242 244
289 288 288 285 284 281 278 276 272 268 267 263 260 255 248 243 238 236 233 232 232 235 236 236 230 229 226 227 229 229 232 235 231 229 226 218 221 225 228 229 229 235 240 239 242
Height
10646 10650 10654 10658 10662 10667 10672 10677 10682 10687 10693 10699 10704 10708 10714 10719 10724 10726 10729 10737 10743 10749 10755 10762 10769 10776 10783 10789 10796 10804 10813 10820 10824 10827 10829 10832 10838 10841 10846 10849 10851 10851 10854 10858 10861
10631 10634 10636 10639 10642 10647 10653 10659 10666 10671 10677 10683 10689 10695 10701 10706 10711 10714 10720 10724 10729 10735 10742 10749 10757 10764 10771 10776 10784 10793 10803 10808 10813 10819 10824 10824 10829 10834 10838 10843 10845 10846 10847 10851 10855
10621 10621 10622 10623 10625 10629 10633 10641 10646 10653 10661 10667 10673 10679 10686 10693 10697 10703 10707 10713 10717 10722 10728 10736 10744 10752 10760 10765 10773 10782 10790 10795 10801 10809 10817 10819 10820 10823 10831 10835 10837 10839 10841 10844 10848
10610 10610 10609 10610 10612 10613 10615 10619 10624 10632 10642 10651 10657 10664 10671 10676 10684 10690 10695 10700 10706 10710 10715 10723 10729 10739 10747 10755 10761 10769 10776 10785 10791 10799 10806 10812 10813 10815 10820 10826 10829 10832 10835 10837 10841
10604 10600 10599 10599 10599 10600 10599 10601 10607 10613 10622 10631 10639 10647 10655 10662 10670 10678 10682 10686 10692 10698 10703 10709 10715 10723 10733 10743 10749 10755 10765 10774 10781 10788 10794 10801 10805 10808 10811 10816 10820 10824 10827 10830 10834
10599 10595 10592 10589 10588 10588 10589 10590 10592 10597 10603 10611 10619 10628 10637 10645 10656 10662 10665 10673 10679 10685 10691 10696 10704 10709 10717 10728 10735 10745 10753 10761 10771 10778 10784 10791 10795 10799 10801 10805 10810 10815 10819 10822 10827
10593 10589 10587 10583 10579 10577 10577 10579 10580 10582 10587 10593 10600 10608 10619 10630 10635 10645 10651 10659 10666 10671 10678 10684 10689 10695 10704 10711 10723 10732 10739 10749 10759 10768 10773 10780 10786 10793 10795 10798 10801 10805 10809 10813 10817
10584 10582 10580 10579 10576 10572 10569 10566 10569 10571 10573 10578 10584 10592 10599 10611 10619 10628 10636 10643 10650 10657 10663 10670 10676 10682 10689 10699 10708 10719 10727 10736 10749 10756 10764 10769 10777 10782 10785 10788 10791 10795 10797 10802 10808
10575 10573 10571 10570 10569 10567 10564 10560 10558 10558 10560 10563 10568 10575 10582 10589 10600 10608 10617 10628 10634 10640 10648 10655 10662 10669 10677 10687 10695 10709 10724 10731 10735 10744 10751 10758 10764 10769 10773 10776 10779 10784 10788 10792 10798
10565 10563 10562 10561 10559 10558 10558 10555 10551 10548 10548 10550 10553 10559 10567 10572 10579 10588 10597 10610 10617 10625 10633 10640 10646 10656 10665 10674 10692 10694 10702 10712 10719 10728 10734 10741 10748 10754 10760 10765 10769 10773 10779 10784 10790
10555 10553 10552 10551 10549 10548 10548 10547 10545 10541 10538 10540 10542 10543 10550 10557 10563 10571 10578 10589 10599 10608 10617 10622 10633 10647 10650 10656 10666 10672 10678 10686 10696 10705 10714 10725 10732 10738 10745 10754 10759 10764 10771 10778 10783
10546 10543 10542 10540 10538 10537 10536 10537 10536 10535 10530 10529 10530 10529 10537 10542 10546 10553 10560 10569 10580 10589 10596 10609 10625 10624 10626 10639 10649 10659 10662 10676 10688 10694 10702 10712 10718 10723 10732 10741 10751 10759 10764 10769 10772
10537 10533 10530 10528 10526 10525 10525 10525 10525 10525 10525 10517 10519 10517 10522 10523 10527 10534 10543 10551 10559 10571 10580 10591 10604 10603 10611 10624 10635 10648 10657 10664 10672 10680 10686 10693 10701 10714 10724 10733 10741 10748 10754 10756 10759
10529 10521 10519 10518 10515 10513 10512 10512 10513 10513 10515 10510 10505 10507 10506 10508 10510 10519 10526 10535 10545 10550 10561 10576 10584 10590 10597 10609 10620 10633 10638 10637 10647 10653 10665 10672 10684 10695 10708 10718 10732 10739 10739 10742 10745
10516 10510 10508 10505 10504 10501 10499 10499 10498 10497 10504 10498 10495 10490 10493 10494 10495 10500 10510 10519 10525 10531 10545 10558 10562 10570 10580 10597 10595 10613 10611 10616 10623 10626 10633 10650 10667 10693 10696 10716 10725 10721 10723 10728 10731
10502 10497 10494 10492 10487 10487 10485 10484 10484 10484 10484 10480 10480 10480 10478 10480 10481 10484 10492 10500 10506 10516 10528 10536 10544 10556 10569 10570 10571 10581 10587 10595 10602 10610 10617 10650 10658 10674 10694 10709 10696 10707 10710 10713 10723
10489 10483 10478 10476 10473 10472 10470 10468 10467 10467 10465 10467 10464 10465 10465 10464 10465 10468 10474 10483 10489 10499 10509 10514 10528 10535 10543 10546 10548 10560 10571 10578 10588 10597 10635 10637 10641 10678 10680 10683 10687 10690 10692 10703 10713
10473 10468 10463 10459 10456 10455 10454 10451 10449 10450 10449 10447 10447 10446 10449 10448 10449 10453 10458 10465 10470 10479 10486 10498 10509 10516 10527 10532 10535 10545 10554 10564 10586 10604 10620 10609 10630 10657 10660 10661 10665 10670 10677 10692 10701
10458 10452 10446 10442 10438 10436 10434 10431 10428 10430 10429 10427 10426 10429 10431 10430 10434 10438 10444 10449 10451 10458 10468 10479 10491 10495 10504 10507 10509 10521 10530 10566 10557 10569 10569 10587 10610 10626 10632 10640 10648 10656 10661 10673 10679
10437 10433 10428 10423 10419 10415 10411 10407 10404 10406 10407 10406 10405 10408 10412 10412 10416 10419 10425 10429 10429 10437 10446 10460 10469 10475 10482 10488 10493 10505 10534 10522 10530 10548 10569 10591 10601 10618 10628 10628 10630 10640 10647 10652 10654
10412 10407 10404 10401 10397 10393 10390 10385 10380 10383 10383 10384 10385 10385 10392 10394 10397 10402 10408 10407 10413 10420 10430 10440 10449 10455 10463 10475 10482 10493 10497 10513 10520 10531 10555 10576 10588 10595 10604 10603 10612 10620 10623 10626 10630
10388 10384 10379 10376 10373 10368 10364 10361 10359 10356 10358 10359 10361 10366 10370 10375 10378 10381 10388 10388 10395 10398 10409 10414 10427 10436 10444 10451 10460 10469 10482 10489 10490 10522 10547 10560 10579 10582 10585 10590 10594 10598 10602 10609 10620
10359 10356 10354 10350 10346 10343 10338 10334 10332 10329 10329 10334 10335 10344 10350 10350 10355 10361 10368 10370 10373 10378 10386 10394 10415 10418 10424 10436 10450 10461 10472 10479 10489 10503 10523 10540 10569 10563 10569 10573 10575 10580 10587 10593 10605
10338 10329 10325 10319 10317 10313 10309 10308 10304 10303 10301 10303 10311 10318 10324 10325 10331 10339 10348 10348 10354 10357 10366 10375 10390 10402 10416 10426 10425 10436 10448 10458 10469 10480 10515 10536 10544 10548 10553 10556 10556 10563 10569 10572 10588
10310 10305 10298 10293 10289 10284 10283 10281 10278 10277 10277 10278 10287 10294 10297 10298 10305 10315 10324 10329 10333 10337 10343 10353 10374 10379 10390 10397 10405 10417 10427 10435 10448 10482 10487 10527 10526 10530 10536 10541 10541 10547 10555 10561 10574
10282 10277 10271 10266 10260 10255 10254 10256 10255 10253 10251 10255 10260 10267 10270 10274 10281 10290 10301 10307 10310 10318 10320 10333 10351 10356 10371 10377 10383 10394 10406 10421 10446 10463 10485 10493 10507 10514 10516 10526 10538 10545 10543 10549 10556
10250 10249 10245 10239 10231 10228 10227 10229 10228 10231 10227 10231 10236 10240 10248 10247 10258 10268 10277 10283 10292 10295 10298 10308 10327 10337 10352 10352 10356 10369 10406 10416 10428 10445 10464 10478 10500 10496 10506 10517 10526 10526 10526 10538 10543